| time (UTC) | temp F | wind direction | speed knots | gust knots | rain 1hr in | rain 24hr in | rain mn in | humidity % | barometer mb |
| 20260503035513 | 68 | 264 | 1.7 | 5.2 | 0.00 | 0.00 | 0.00 | 5 | 1015.9 |
| 20260503035006 | 69 | 225 | 2.6 | 5.2 | 0.00 | 0.00 | 0.00 | 5 | 1015.9 |
| 20260503033956 | 69 | 210 | 2.6 | 5.2 | 0.00 | 0.00 | 0.00 | 4 | 1015.8 |
| 20260503033448 | 69 | 215 | 1.7 | 5.2 | 0.00 | 0.00 | 0.00 | 4 | 1015.8 |
| 20260503032943 | 69 | 179 | 1.7 | 6.1 | 0.00 | 0.00 | 0.00 | 4 | 1015.8 |
| 20260503032441 | 69 | 232 | 1.7 | 6.1 | 0.00 | 0.00 | 0.00 | 4 | 1015.8 |
| 20260503031930 | 70 | 274 | 2.6 | 6.1 | 0.00 | 0.00 | 0.00 | 4 | 1015.6 |
| 20260503031427 | 70 | 266 | 2.6 | 6.1 | 0.00 | 0.00 | 0.00 | 4 | 1015.6 |
| 20260503025906 | 71 | 203 | 2.6 | 7.8 | 0.00 | 0.00 | 0.00 | 3 | 1015.4 |
| 20260503025400 | 71 | 214 | 2.6 | 7.8 | 0.00 | 0.00 | 0.00 | 3 | 1015.3 |
| 20260503024854 | 71 | 243 | 2.6 | 7.0 | 0.00 | 0.00 | 0.00 | 3 | 1015.3 |
| 20260503024348 | 71 | 253 | 1.7 | 7.0 | 0.00 | 0.00 | 0.00 | 3 | 1015.2 |
| 20260503023845 | 71 | 245 | 0.9 | 3.5 | 0.00 | 0.00 | 0.00 | 4 | 1015.1 |
| 20260503023337 | 71 | 260 | 1.7 | 5.2 | 0.00 | 0.00 | 0.00 | 4 | 1015.1 |
| 20260503022830 | 72 | 217 | 1.7 | 5.2 | 0.00 | 0.00 | 0.00 | 4 | 1015.1 |
| 20260503022325 | 72 | 217 | 2.6 | 9.6 | 0.00 | 0.00 | 0.00 | 4 | 1015.1 |
| 20260503021818 | 72 | 262 | 3.5 | 9.6 | 0.00 | 0.00 | 0.00 | 3 | 1015.1 |
| 20260503021312 | 73 | 284 | 3.5 | 8.7 | 0.00 | 0.00 | 0.00 | 3 | 1015.1 |
| 20260503020807 | 73 | 275 | 2.6 | 8.7 | 0.00 | 0.00 | 0.00 | 3 | 1015.1 |
| 20260503020301 | 73 | 195 | 1.7 | 7.0 | 0.00 | 0.00 | 0.00 | 3 | 1015.0 |
| 20260503015755 | 73 | 206 | 2.6 | 7.8 | 0.00 | 0.00 | 0.00 | 3 | 1014.9 |
| 20260503015248 | 73 | 243 | 2.6 | 7.8 | 0.00 | 0.00 | 0.00 | 3 | 1015.0 |
| 20260503014746 | 74 | 293 | 3.5 | 8.7 | 0.00 | 0.00 | 0.00 | 3 | 1014.9 |
| 20260503014239 | 74 | 188 | 3.5 | 8.7 | 0.00 | 0.00 | 0.00 | 3 | 1015.0 |
| 20260503013737 | 74 | 260 | 3.5 | 8.7 | 0.00 | 0.00 | 0.00 | 3 | 1014.9 |
| 20260503013235 | 74 | 248 | 4.3 | 8.7 | 0.00 | 0.00 | 0.00 | 3 | 1014.9 |
| 20260503012742 | 75 | 278 | 4.3 | 9.6 | 0.00 | 0.00 | 0.00 | 3 | 1014.9 |
| 20260503012235 | 76 | 193 | 3.5 | 9.6 | 0.00 | 0.00 | 0.00 | 3 | 1014.8 |
| 20260503011733 | 76 | 244 | 1.7 | 7.8 | 0.00 | 0.00 | 0.00 | 2 | 1014.6 |
| 20260503011235 | 77 | 243 | 2.6 | 8.7 | 0.00 | 0.00 | 0.00 | 2 | 1014.6 |
| 20260503010733 | 77 | 235 | 2.6 | 8.7 | 0.00 | 0.00 | 0.00 | 3 | 1014.6 |
| 20260503010231 | 78 | 297 | 1.7 | 6.1 | 0.00 | 0.00 | 0.00 | 2 | 1014.8 |
| 20260503005730 | 78 | 240 | 3.5 | 7.0 | 0.00 | 0.00 | 0.00 | 2 | 1014.8 |
| 20260503005230 | 77 | 162 | 3.5 | 8.7 | 0.00 | 0.00 | 0.00 | 3 | 1014.8 |
| 20260503004731 | 77 | 266 | 2.6 | 8.7 | 0.00 | 0.00 | 0.00 | 3 | 1014.8 |
| 20260503004230 | 77 | 293 | 2.6 | 7.8 | 0.00 | 0.00 | 0.00 | 3 | 1014.8 |
| 20260503003727 | 77 | 247 | 3.5 | 8.7 | 0.00 | 0.00 | 0.00 | 3 | 1014.8 |
| 20260503002727 | 77 | 201 | 3.5 | 9.6 | 0.00 | 0.00 | 0.00 | 3 | 1014.9 |
| 20260503002227 | 78 | 215 | 1.7 | 7.8 | 0.00 | 0.00 | 0.00 | 2 | 1014.8 |
| 20260503001730 | 79 | 214 | 1.7 | 7.8 | 0.00 | 0.00 | 0.00 | 1 | 1014.9 |
| 20260503001235 | 79 | 221 | 1.7 | 7.8 | 0.00 | 0.00 | 0.00 | 1 | 1014.9 |
| 20260503000226 | 78 | 209 | 2.6 | 11.3 | 0.00 | 0.00 | 0.00 | 1 | 1014.9 |
| 20260502235721 | 78 | 203 | 2.6 | 9.6 | 0.00 | 0.00 | 0.00 | 1 | 1014.8 |
| 20260502235221 | 79 | 150 | 4.3 | 13.9 | 0.00 | 0.00 | 0.00 | 1 | 1014.6 |
| 20260502234723 | 80 | 136 | 4.3 | 13.9 | 0.00 | 0.00 | 0.00 | 1 | 1014.6 |
| 20260502234223 | 81 | 107 | 1.7 | 9.6 | 0.00 | 0.00 | 0.00 | 1 | 1014.6 |
| 20260502233721 | 81 | 269 | 2.6 | 8.7 | 0.00 | 0.00 | 0.00 | 1 | 1014.6 |
| 20260502233221 | 80 | 334 | 4.3 | 13.9 | 0.00 | 0.00 | 0.00 | 1 | 1014.8 |
| 20260502232721 | 80 | 149 | 3.5 | 13.9 | 0.00 | 0.00 | 0.00 | 1 | 1014.9 |
| 20260502232221 | 81 | 193 | 2.6 | 9.6 | 0.00 | 0.00 | 0.00 | 1 | 1014.8 |
| 20260502231721 | 80 | 107 | 2.6 | 7.8 | 0.00 | 0.00 | 0.00 | 1 | 1014.6 |
| 20260502231221 | 80 | 86 | 4.3 | 11.3 | 0.00 | 0.00 | 0.00 | 1 | 1014.9 |
| 20260502230221 | 80 | 103 | 3.5 | 12.2 | 0.00 | 0.00 | 0.00 | 1 | 1014.9 |
| 20260502225722 | 80 | 247 | 3.5 | 13.0 | 0.00 | 0.00 | 0.00 | 1 | 1014.9 |
| 20260502225220 | 80 | 133 | 2.6 | 13.0 | 0.00 | 0.00 | 0.00 | 1 | 1014.9 |
| 20260502224721 | 80 | 5 | 3.5 | 11.3 | 0.00 | 0.00 | 0.00 | 1 | 1014.9 |
| 20260502224222 | 80 | 157 | 4.3 | 13.9 | 0.00 | 0.00 | 0.00 | 1 | 1015.1 |
| 20260502223722 | 80 | 80 | 4.3 | 13.9 | 0.00 | 0.00 | 0.00 | 1 | 1015.0 |
| 20260502223226 | 80 | 216 | 3.5 | 9.6 | 0.00 | 0.00 | 0.00 | 1 | 1015.1 |
| 20260502222724 | 80 | 63 | 3.5 | 9.6 | 0.00 | 0.00 | 0.00 | 1 | 1015.3 |
| 20260502222226 | 80 | 104 | 3.5 | 12.2 | 0.00 | 0.00 | 0.00 | 1 | 1015.3 |
| 20260502221724 | 80 | 201 | 3.5 | 12.2 | 0.00 | 0.00 | 0.00 | 1 | 1015.3 |
| 20260502221224 | 80 | 90 | 4.3 | 8.7 | 0.00 | 0.00 | 0.00 | 1 | 1015.4 |
| 20260502220721 | 80 | 94 | 3.5 | 8.7 | 0.00 | 0.00 | 0.00 | 1 | 1015.6 |
| 20260502220223 | 79 | 204 | 2.6 | 7.0 | 0.00 | 0.00 | 0.00 | 1 | 1015.7 |
| 20260502215723 | 79 | 27 | 3.5 | 8.7 | 0.00 | 0.00 | 0.00 | 1 | 1015.8 |
| 20260502215221 | 79 | 110 | 2.6 | 8.7 | 0.00 | 0.00 | 0.00 | 1 | 1015.9 |
| 20260502213721 | 80 | 77 | 3.5 | 8.7 | 0.00 | 0.00 | 0.00 | 1 | 1016.2 |
| 20260502213221 | 80 | 222 | 2.6 | 8.7 | 0.00 | 0.00 | 0.00 | 1 | 1016.2 |
| 20260502212222 | 79 | 120 | 4.3 | 12.2 | 0.00 | 0.00 | 0.00 | 1 | 1016.4 |
| 20260502211722 | 79 | 82 | 3.5 | 8.7 | 0.00 | 0.00 | 0.00 | 1 | 1016.4 |
| 20260502211222 | 79 | 330 | 3.5 | 8.7 | 0.00 | 0.00 | 0.00 | 1 | 1016.5 |
| 20260502210720 | 80 | 99 | 2.6 | 6.1 | 0.00 | 0.00 | 0.00 | 1 | 1016.6 |
| 20260502210221 | 79 | 250 | 2.6 | 7.8 | 0.00 | 0.00 | 0.00 | 1 | 1016.6 |
| 20260502205722 | 78 | 21 | 1.7 | 7.8 | 0.00 | 0.00 | 0.00 | 1 | 1016.8 |
| 20260502205216 | 78 | 251 | 2.6 | 7.0 | 0.00 | 0.00 | 0.00 | 1 | 1016.8 |
| 20260502204716 | 78 | 11 | 4.3 | 10.4 | 0.00 | 0.00 | 0.00 | 1 | 1016.9 |
| 20260502204216 | 78 | 192 | 4.3 | 10.4 | 0.00 | 0.00 | 0.00 | 1 | 1016.9 |
| 20260502203715 | 78 | 292 | 3.5 | 8.7 | 0.00 | 0.00 | 0.00 | 1 | 1016.8 |
| 20260502203215 | 79 | 82 | 4.3 | 9.6 | 0.00 | 0.00 | 0.00 | 1 | 1017.0 |
| 20260502202716 | 79 | 89 | 2.6 | 9.6 | 0.00 | 0.00 | 0.00 | 1 | 1017.0 |
| 20260502201719 | 78 | 246 | 2.6 | 6.1 | 0.00 | 0.00 | 0.00 | 1 | 1017.0 |
| 20260502201216 | 78 | 284 | 3.5 | 7.8 | 0.00 | 0.00 | 0.00 | 1 | 1017.3 |
| 20260502200710 | 78 | 103 | 4.3 | 9.6 | 0.00 | 0.00 | 0.00 | 1 | 1017.4 |
| 20260502200210 | 77 | 84 | 5.2 | 11.3 | 0.00 | 0.00 | 0.00 | 1 | 1017.4 |
| 20260502195708 | 77 | 139 | 5.2 | 11.3 | 0.00 | 0.00 | 0.00 | 1 | 1017.5 |
| 20260502195210 | 78 | 107 | 4.3 | 10.4 | 0.00 | 0.00 | 0.00 | 1 | 1017.6 |
| 20260502194710 | 78 | 187 | 2.6 | 10.4 | 0.00 | 0.00 | 0.00 | 1 | 1017.6 |
| 20260502194209 | 77 | 113 | 3.5 | 9.6 | 0.00 | 0.00 | 0.00 | 1 | 1017.6 |
| 20260502193704 | 76 | 196 | 3.5 | 9.6 | 0.00 | 0.00 | 0.00 | 1 | 1017.6 |
| 20260502193157 | 76 | 46 | 3.5 | 7.8 | 0.00 | 0.00 | 0.00 | 1 | 1017.7 |
| 20260502192651 | 76 | 30 | 2.6 | 7.8 | 0.00 | 0.00 | 0.00 | 1 | 1017.8 |
| 20260502192149 | 77 | 100 | 3.5 | 7.0 | 0.00 | 0.00 | 0.00 | 1 | 1018.0 |
| 20260502191646 | 76 | 179 | 4.3 | 7.8 | 0.00 | 0.00 | 0.00 | 1 | 1018.0 |
| 20260502191146 | 76 | 54 | 3.5 | 7.8 | 0.00 | 0.00 | 0.00 | 1 | 1018.0 |
| 20260502190146 | 76 | 98 | 3.5 | 10.4 | 0.00 | 0.00 | 0.00 | 1 | 1018.1 |
| 20260502184644 | 75 | 9 | 2.6 | 7.0 | 0.00 | 0.00 | 0.00 | 1 | 1018.2 |
| 20260502184146 | 76 | 319 | 2.6 | 6.1 | 0.00 | 0.00 | 0.00 | 1 | 1018.3 |
| 20260502183645 | 76 | 20 | 2.6 | 6.1 | 0.00 | 0.00 | 0.00 | 1 | 1018.3 |
| 20260502183144 | 75 | 216 | 1.7 | 6.1 | 0.00 | 0.00 | 0.00 | 1 | 1018.4 |
| 20260502182649 | 75 | 58 | 2.6 | 8.7 | 0.00 | 0.00 | 0.00 | 1 | 1018.4 |
| 20260502182147 | 76 | 44 | 4.3 | 9.6 | 0.00 | 0.00 | 0.00 | 1 | 1018.4 |
| 20260502181144 | 76 | 353 | 2.6 | 8.7 | 0.00 | 0.00 | 0.00 | 1 | 1018.4 |
| 20260502180645 | 76 | 6 | 1.7 | 6.1 | 0.00 | 0.00 | 0.00 | 1 | 1018.6 |
| 20260502180139 | 76 | 41 | 1.7 | 8.7 | 0.00 | 0.00 | 0.00 | 1 | 1018.8 |
| 20260502164003 | 71 | 42 | 2.6 | 6.1 | 0.00 | 0.00 | 0.00 | 2 | 1019.0 |
| 20260502163458 | 71 | 82 | 2.6 | 5.2 | 0.00 | 0.00 | 0.00 | 2 | 1019.1 |
| 20260502162951 | 72 | 78 | 2.6 | 5.2 | 0.00 | 0.00 | 0.00 | 2 | 1019.0 |
| 20260502162445 | 72 | 297 | 1.7 | 7.0 | 0.00 | 0.00 | 0.00 | 2 | 1018.9 |
| 20260502161942 | 70 | 208 | 2.6 | 7.0 | 0.00 | 0.00 | 0.00 | 3 | 1019.0 |
| 20260502161434 | 69 | 75 | 2.6 | 7.0 | 0.00 | 0.00 | 0.00 | 4 | 1019.0 |
| 20260502160927 | 69 | 9 | 2.6 | 7.0 | 0.00 | 0.00 | 0.00 | 4 | 1019.0 |
| 20260502160421 | 69 | 69 | 2.6 | 7.0 | 0.00 | 0.00 | 0.00 | 4 | 1019.1 |
| 20260502152333 | 66 | 98 | 1.7 | 6.1 | 0.00 | 0.00 | 0.00 | 6 | 1019.1 |
| 20260502151830 | 65 | 76 | 2.6 | 6.1 | 0.00 | 0.00 | 0.00 | 7 | 1019.0 |
| 20260502150816 | 64 | 76 | 2.6 | 7.8 | 0.00 | 0.00 | 0.00 | 7 | 1018.9 |
| 20260502150309 | 64 | 25 | 2.6 | 7.8 | 0.00 | 0.00 | 0.00 | 7 | 1018.8 |
| 20260502130511 | 55 | 102 | 0.9 | 4.3 | 0.00 | 0.00 | 0.00 | 14 | 1018.3 |
| 20260502123001 | 54 | 206 | 1.7 | 2.6 | 0.00 | 0.00 | 0.00 | 16 | 1018.0 |
| 20260502122503 | 54 | 174 | 1.7 | 2.6 | 0.00 | 0.00 | 0.00 | 16 | 1017.8 |
| 20260502122000 | 53 | 143 | 0.9 | 2.6 | 0.00 | 0.00 | 0.00 | 17 | 1017.8 |
| 20260502121500 | 53 | 165 | 0.9 | 1.7 | 0.00 | 0.00 | 0.00 | 17 | 1017.7 |
| 20260502120458 | 53 | 170 | 0.0 | 1.7 | 0.00 | 0.00 | 0.00 | 17 | 1017.8 |
| 20260502114953 | 54 | 172 | 0.9 | 2.6 | 0.00 | 0.00 | 0.00 | 16 | 1017.7 |
| 20260502113954 | 54 | 158 | 0.9 | 1.7 | 0.00 | 0.00 | 0.00 | 17 | 1017.7 |
| 20260502113454 | 53 | 167 | 0.0 | 1.7 | 0.00 | 0.00 | 0.00 | 17 | 1017.7 |
| 20260502112952 | 54 | 165 | 0.0 | 1.7 | 0.00 | 0.00 | 0.00 | 17 | 1017.7 |
| 20260502112454 | 54 | 105 | 0.0 | 3.5 | 0.00 | 0.00 | 0.00 | 17 | 1017.7 |
| 20260502111956 | 53 | 135 | 0.0 | 3.5 | 0.00 | 0.00 | 0.00 | 17 | 1017.7 |
| 20260502110953 | 55 | 169 | 0.0 | 1.7 | 0.00 | 0.00 | 0.00 | 16 | 1017.8 |
| 20260502110452 | 55 | 187 | 0.0 | 1.7 | 0.00 | 0.00 | 0.00 | 16 | 1017.7 |
| 20260502105953 | 56 | 4 | 0.0 | 3.5 | 0.00 | 0.00 | 0.00 | 15 | 1017.8 |
| 20260502105453 | 56 | 98 | 0.9 | 3.5 | 0.00 | 0.00 | 0.00 | 15 | 1017.8 |
| 20260502104452 | 56 | 93 | 0.0 | 2.6 | 0.00 | 0.00 | 0.00 | 15 | 1017.8 |
| 20260502103952 | 56 | 103 | 0.9 | 4.3 | 0.00 | 0.00 | 0.00 | 15 | 1017.8 |
| 20260502103451 | 56 | 82 | 0.9 | 4.3 | 0.00 | 0.00 | 0.00 | 15 | 1017.8 |
| 20260502102451 | 55 | 105 | 0.9 | 3.5 | 0.00 | 0.00 | 0.00 | 15 | 1017.8 |
| 20260502101956 | 55 | 123 | 0.9 | 3.5 | 0.00 | 0.00 | 0.00 | 15 | 1017.8 |
| 20260502100950 | 55 | 193 | 0.9 | 5.2 | 0.00 | 0.00 | 0.00 | 15 | 1018.0 |
| 20260502100453 | 55 | 108 | 0.9 | 5.2 | 0.00 | 0.00 | 0.00 | 16 | 1018.0 |
| 20260502091440 | 55 | 151 | 0.0 | 2.6 | 0.00 | 0.00 | 0.00 | 14 | 1018.0 |
| 20260502090938 | 55 | 115 | 0.0 | 2.6 | 0.00 | 0.00 | 0.00 | 14 | 1018.1 |
| 20260502090442 | 54 | 162 | 0.0 | 0.9 | 0.00 | 0.00 | 0.00 | 14 | 1018.1 |
| 20260502071323 | 59 | 195 | 1.7 | 6.1 | 0.00 | 0.00 | 0.00 | 7 | 1018.2 |
| 20260502070819 | 59 | 126 | 2.6 | 7.8 | 0.00 | 0.00 | 0.00 | 7 | 1018.3 |
| 20260502070310 | 57 | 84 | 0.9 | 7.8 | 0.00 | 0.00 | 0.00 | 8 | 1018.2 |
| 20260502065805 | 56 | 178 | 0.0 | 1.7 | 0.00 | 0.00 | 0.00 | 9 | 1018.0 |
| 20260502064753 | 57 | 212 | 0.9 | 1.7 | 0.00 | 0.00 | 0.00 | 8 | 1017.8 |
| 20260502063742 | 58 | 155 | 0.0 | 2.6 | 0.00 | 0.00 | 0.00 | 8 | 1017.8 |
| 20260502063237 | 57 | 85 | 0.0 | 2.6 | 0.00 | 0.00 | 0.00 | 8 | 1017.7 |
| 20260502062729 | 57 | 186 | 0.9 | 2.6 | 0.00 | 0.00 | 0.00 | 8 | 1017.8 |
| 20260502062223 | 57 | 184 | 0.9 | 2.6 | 0.00 | 0.00 | 0.00 | 8 | 1017.7 |
| 20260502061717 | 57 | 210 | 0.9 | 2.6 | 0.00 | 0.00 | 0.00 | 8 | 1017.6 |
| 20260502060705 | 56 | 190 | 0.9 | 2.6 | 0.00 | 0.00 | 0.00 | 8 | 1017.6 |
| 20260502060158 | 56 | 203 | 0.9 | 1.7 | 0.00 | 0.00 | 0.00 | 8 | 1017.6 |
| 20260502055652 | 57 | 176 | 0.9 | 2.6 | 0.00 | 0.00 | 0.00 | 7 | 1017.5 |
| 20260502055147 | 58 | 182 | 0.9 | 2.6 | 0.00 | 0.00 | 0.00 | 7 | 1017.4 |
| 20260502054641 | 59 | 152 | 0.9 | 2.6 | 0.00 | 0.00 | 0.00 | 7 | 1017.4 |
| 20260502053629 | 58 | 168 | 0.9 | 2.6 | 0.00 | 0.00 | 0.00 | 7 | 1017.2 |
| 20260502053122 | 58 | 174 | 0.9 | 2.6 | 0.00 | 0.00 | 0.00 | 7 | 1017.3 |
| 20260502052617 | 59 | 184 | 0.9 | 2.6 | 0.00 | 0.00 | 0.00 | 6 | 1017.3 |
| 20260502052111 | 60 | 171 | 0.0 | 1.7 | 0.00 | 0.00 | 0.00 | 6 | 1017.3 |
| 20260502051603 | 60 | 103 | 0.0 | 1.7 | 0.00 | 0.00 | 0.00 | 6 | 1017.3 |
| 20260502050553 | 61 | 200 | 0.0 | 1.7 | 0.00 | 0.00 | 0.00 | 5 | 1017.0 |
| 20260502050047 | 62 | 245 | 0.9 | 1.7 | 0.00 | 0.00 | 0.00 | 5 | 1017.2 |
| 20260502045543 | 62 | 295 | 0.9 | 2.6 | 0.00 | 0.00 | 0.00 | 5 | 1017.2 |
| 20260502045034 | 62 | 269 | 0.9 | 2.6 | 0.00 | 0.00 | 0.00 | 5 | 1017.0 |
| 20260502044531 | 61 | 298 | 0.9 | 2.6 | 0.00 | 0.00 | 0.00 | 5 | 1017.0 |
| 20260502043519 | 61 | 237 | 0.9 | 3.5 | 0.00 | 0.00 | 0.00 | 5 | 1016.9 |
| 20260502043010 | 60 | 278 | 0.9 | 2.6 | 0.00 | 0.00 | 0.00 | 6 | 1017.0 |
| 20260502042509 | 60 | 234 | 0.9 | 1.7 | 0.00 | 0.00 | 0.00 | 6 | 1016.9 |
| 20260502041958 | 59 | 219 | 0.0 | 1.7 | 0.00 | 0.00 | 0.00 | 7 | 1016.8 |
| 20260502041452 | 58 | 219 | 0.0 | 1.7 | 0.00 | 0.00 | 0.00 | 7 | 1016.8 |
| 20260502040949 | 59 | 201 | 0.0 | 0.9 | 0.00 | 0.00 | 0.00 | 6 | 1016.7 |
| 20260502040449 | 60 | 174 | 0.0 | 0.9 | 0.00 | 0.00 | 0.00 | 6 | 1016.6 |
| 20260502035951 | 61 | 202 | 0.0 | 1.7 | 0.00 | 0.00 | 0.00 | 5 | 1016.6 |